Temp
-12 -11 -11 -11 -10 -10 -10 -10 -10 -10 -10 -10 -10 -10 -10 -10 -9 -9 -9 -9 -9 -10 -10 -10 -9 -9 -9 -9 -9 -9 -8 -8 -8 -9 -9 -9 -9 -9 -8 -7 -9 -9 -8 -9 -8
-11 -11 -11 -10 -10 -10 -10 -10 -10 -10 -10 -10 -10 -10 -10 -10 -10 -10 -9 -9 -9 -9 -10 -9 -9 -9 -10 -10 -9 -9 -8 -9 -10 -9 -9 -10 -9 -10 -9 -8 -8 -10 -10 -10 -9
-11 -11 -11 -11 -10 -10 -10 -10 -10 -10 -10 -10 -10 -10 -10 -10 -10 -10 -10 -9 -9 -9 -10 -9 -9 -10 -10 -9 -9 -9 -8 -9 -9 -9 -9 -10 -10 -11 -10 -9 -10 -10 -11 -10 -10
-11 -11 -11 -11 -11 -11 -10 -10 -10 -10 -10 -10 -10 -10 -10 -10 -10 -10 -10 -10 -10 -10 -10 -10 -9 -9 -9 -9 -9 -8 -8 -9 -10 -9 -9 -9 -10 -10 -9 -9 -10 -11 -11 -10 -10
-11 -11 -11 -11 -11 -11 -11 -11 -11 -11 -11 -11 -11 -11 -11 -11 -10 -10 -10 -10 -10 -10 -10 -10 -10 -10 -10 -10 -10 -9 -9 -9 -9 -10 -10 -10 -9 -10 -9 -9 -10 -10 -10 -10 -10
-10 -11 -11 -11 -11 -11 -11 -11 -11 -11 -11 -11 -11 -11 -11 -11 -11 -11 -11 -11 -11 -11 -11 -11 -11 -11 -11 -11 -10 -10 -9 -10 -10 -10 -11 -10 -10 -11 -10 -11 -11 -10 -10 -10 -10
-10 -10 -10 -10 -10 -10 -10 -10 -11 -11 -11 -11 -11 -11 -11 -12 -12 -12 -11 -12 -11 -11 -11 -11 -11 -11 -11 -11 -11 -11 -10 -10 -11 -12 -12 -12 -9 -9 -11 -12 -12 -12 -12 -12 -12
-10 -10 -10 -10 -10 -10 -10 -10 -10 -10 -10 -10 -11 -11 -11 -11 -11 -11 -11 -12 -12 -12 -12 -12 -12 -12 -12 -12 -12 -11 -11 -11 -12 -12 -12 -11 -9 -10 -11 -12 -11 -12 -11 -11 -11
-11 -11 -10 -10 -10 -10 -10 -10 -10 -10 -10 -10 -10 -10 -11 -11 -11 -11 -11 -11 -12 -12 -12 -12 -12 -12 -12 -12 -12 -12 -12 -12 -12 -13 -12 -11 -10 -10 -11 -12 -11 -11 -12 -12 -11
-11 -11 -11 -11 -10 -10 -10 -10 -10 -10 -10 -11 -11 -11 -11 -11 -11 -11 -11 -11 -11 -11 -12 -12 -12 -12 -13 -13 -13 -13 -12 -12 -12 -13 -12 -12 -11 -11 -12 -12 -11 -11 -12 -12 -12
-11 -11 -11 -11 -11 -11 -11 -11 -11 -11 -11 -11 -11 -11 -11 -11 -11 -11 -11 -11 -11 -12 -12 -12 -12 -12 -12 -12 -12 -12 -12 -12 -13 -13 -13 -12 -12 -12 -13 -12 -12 -12 -12 -12 -12
-11 -11 -11 -11 -11 -11 -11 -11 -11 -11 -11 -11 -11 -11 -11 -11 -12 -11 -11 -12 -12 -12 -12 -12 -13 -13 -12 -12 -12 -12 -12 -12 -13 -13 -13 -13 -13 -13 -13 -13 -13 -13 -13 -13 -13
-11 -11 -11 -11 -11 -11 -11 -11 -11 -11 -12 -11 -11 -11 -11 -11 -11 -12 -12 -12 -12 -12 -12 -12 -13 -13 -13 -13 -13 -13 -13 -13 -14 -14 -13 -13 -12 -13 -13 -14 -14 -14 -14 -14 -14
-11 -11 -11 -11 -11 -11 -11 -11 -11 -11 -11 -12 -12 -11 -11 -11 -12 -12 -12 -12 -13 -13 -13 -13 -13 -13 -13 -13 -14 -14 -14 -14 -14 -13 -13 -14 -11 -12 -13 -14 -14 -15 -15 -14 -14
-11 -11 -11 -11 -11 -11 -12 -12 -12 -12 -12 -12 -12 -12 -12 -12 -12 -12 -13 -13 -13 -13 -13 -14 -14 -14 -14 -14 -14 -14 -14 -14 -14 -14 -14 -13 -13 -12 -13 -14 -15 -15 -16 -15 -15
-11 -11 -11 -11 -11 -11 -11 -12 -13 -13 -13 -13 -12 -12 -13 -12 -13 -13 -13 -13 -13 -14 -14 -13 -14 -14 -14 -14 -15 -15 -14 -15 -15 -15 -15 -14 -14 -13 -14 -14 -15 -15 -15 -16 -16
-11 -11 -11 -11 -11 -12 -12 -12 -12 -13 -13 -12 -12 -12 -13 -13 -13 -13 -14 -14 -13 -13 -13 -13 -13 -14 -15 -15 -15 -16 -16 -16 -15 -16 -15 -15 -15 -13 -14 -15 -15 -15 -15 -16 -16
-11 -11 -12 -12 -12 -12 -12 -12 -12 -13 -13 -12 -12 -12 -13 -13 -13 -13 -14 -14 -13 -14 -14 -13 -13 -14 -14 -15 -15 -16 -16 -17 -16 -15 -14 -15 -14 -14 -16 -16 -17 -17 -16 -16 -16
-11 -11 -11 -12 -12 -13 -12 -12 -12 -13 -13 -12 -12 -13 -13 -13 -13 -14 -14 -15 -15 -14 -15 -15 -14 -14 -15 -15 -16 -16 -17 -17 -17 -16 -16 -15 -14 -14 -16 -17 -17 -17 -18 -18 -17
-12 -11 -12 -12 -13 -13 -13 -12 -13 -13 -13 -13 -13 -13 -13 -14 -14 -14 -14 -15 -15 -15 -15 -15 -15 -15 -15 -16 -16 -17 -17 -16 -17 -17 -17 -15 -15 -16 -17 -18 -18 -18 -19 -19 -19
-12 -12 -12 -12 -13 -13 -13 -13 -13 -13 -13 -13 -13 -13 -13 -14 -14 -14 -15 -15 -15 -15 -16 -16 -15 -15 -16 -16 -16 -17 -17 -17 -17 -18 -18 -17 -15 -17 -18 -18 -19 -20 -20 -20 -19
-12 -12 -12 -13 -13 -13 -13 -13 -14 -13 -14 -14 -13 -13 -13 -14 -14 -14 -15 -15 -15 -15 -15 -16 -16 -16 -16 -16 -16 -17 -17 -17 -18 -18 -19 -19 -15 -18 -20 -21 -21 -21 -20 -20 -20
-13 -13 -13 -13 -13 -14 -14 -14 -14 -14 -15 -15 -15 -14 -14 -14 -14 -14 -15 -15 -15 -15 -15 -15 -15 -15 -15 -16 -16 -17 -17 -18 -18 -18 -18 -20 -18 -20 -20 -21 -21 -21 -21 -20 -19
-14 -14 -13 -13 -14 -14 -14 -14 -14 -14 -15 -15 -15 -15 -15 -15 -15 -15 -15 -15 -15 -15 -15 -15 -15 -15 -15 -16 -16 -17 -17 -18 -18 -19 -19 -19 -19 -20 -20 -21 -21 -22 -21 -21 -21
-14 -14 -15 -15 -14 -15 -15 -15 -15 -15 -15 -16 -16 -15 -15 -15 -16 -15 -15 -15 -16 -15 -15 -16 -15 -16 -16 -16 -17 -16 -17 -19 -20 -20 -20 -19 -20 -20 -20 -20 -21 -21 -21 -21 -21
-14 -15 -15 -15 -16 -15 -15 -16 -15 -15 -16 -16 -16 -16 -16 -16 -16 -16 -16 -16 -16 -16 -16 -16 -15 -16 -16 -17 -17 -17 -19 -19 -20 -20 -20 -20 -20 -20 -20 -20 -20 -21 -21 -21 -20
-15 -15 -16 -16 -16 -16 -16 -16 -16 -16 -16 -16 -16 -16 -16 -16 -16 -16 -16 -16 -16 -16 -16 -16 -16 -17 -17 -17 -18 -19 -19 -20 -20 -20 -20 -20 -20 -20 -20 -20 -20 -20 -20 -20 -20
Height
5762 5763 5764 5765 5766 5767 5768 5770 5772 5774 5777 5779 5782 5784 5786 5788 5789 5790 5792 5793 5796 5796 5798 5801 5802 5805 5808 5809 5810 5811 5813 5819 5823 5825 5833 5829 5830 5830 5833 5834 5837 5838 5837 5838 5841
5767 5766 5767 5767 5767 5768 5769 5770 5771 5773 5775 5777 5779 5780 5782 5784 5786 5787 5789 5790 5792 5794 5795 5797 5799 5800 5801 5803 5804 5806 5808 5813 5814 5814 5819 5819 5820 5820 5824 5824 5827 5831 5832 5837 5837
5771 5770 5769 5769 5769 5769 5769 5770 5771 5773 5774 5775 5777 5778 5779 5780 5782 5783 5784 5785 5787 5789 5790 5792 5793 5795 5796 5797 5799 5801 5804 5804 5807 5808 5811 5814 5810 5815 5816 5820 5820 5821 5823 5825 5826
5773 5773 5772 5771 5771 5770 5770 5770 5771 5772 5772 5773 5774 5775 5776 5777 5780 5779 5780 5781 5782 5784 5785 5787 5788 5789 5790 5793 5792 5795 5796 5798 5800 5800 5802 5808 5806 5808 5809 5816 5815 5815 5816 5818 5820
5774 5773 5772 5772 5771 5771 5771 5771 5771 5771 5772 5772 5773 5773 5774 5774 5775 5776 5777 5778 5779 5779 5780 5781 5783 5784 5785 5787 5788 5789 5790 5790 5792 5793 5795 5797 5800 5802 5807 5805 5807 5810 5811 5811 5811
5775 5774 5773 5772 5771 5771 5771 5771 5771 5770 5770 5771 5771 5771 5772 5772 5771 5772 5773 5774 5774 5775 5775 5776 5776 5778 5779 5780 5780 5781 5782 5783 5783 5784 5784 5786 5794 5796 5801 5798 5798 5800 5804 5805 5805
5776 5774 5773 5772 5772 5771 5770 5770 5770 5769 5769 5768 5768 5768 5769 5770 5768 5767 5769 5769 5769 5770 5770 5771 5771 5772 5773 5772 5774 5775 5776 5775 5775 5773 5774 5776 5783 5788 5791 5786 5786 5789 5792 5794 5796
5777 5774 5773 5772 5771 5771 5770 5769 5768 5768 5767 5767 5766 5766 5766 5766 5765 5764 5764 5765 5765 5765 5765 5766 5766 5766 5767 5767 5768 5768 5768 5769 5768 5765 5767 5767 5779 5777 5774 5772 5776 5776 5777 5779 5781
5776 5774 5772 5770 5770 5769 5768 5767 5766 5766 5765 5764 5764 5763 5763 5763 5762 5761 5759 5760 5760 5760 5759 5760 5760 5761 5761 5762 5762 5761 5760 5760 5761 5758 5759 5763 5770 5768 5766 5764 5771 5771 5770 5771 5772
5773 5772 5770 5769 5767 5766 5766 5765 5764 5763 5762 5761 5760 5761 5760 5759 5758 5757 5756 5755 5756 5756 5755 5754 5754 5754 5754 5754 5754 5752 5752 5753 5754 5755 5753 5755 5758 5757 5756 5757 5760 5762 5763 5764 5764
5770 5768 5767 5765 5764 5763 5762 5761 5762 5761 5758 5758 5757 5755 5755 5754 5753 5754 5753 5752 5751 5751 5750 5750 5750 5748 5747 5747 5746 5746 5744 5745 5747 5749 5744 5745 5745 5747 5746 5748 5749 5751 5751 5752 5755
5765 5764 5763 5761 5760 5758 5757 5756 5755 5756 5753 5752 5752 5749 5751 5749 5747 5748 5748 5747 5747 5746 5746 5747 5745 5742 5741 5741 5740 5738 5738 5739 5738 5739 5736 5736 5734 5737 5737 5737 5739 5740 5742 5742 5742
5762 5759 5757 5756 5755 5753 5751 5751 5751 5750 5749 5745 5745 5744 5744 5744 5742 5742 5742 5741 5740 5739 5738 5739 5738 5735 5735 5734 5731 5732 5732 5731 5729 5731 5728 5725 5723 5728 5728 5728 5730 5730 5729 5729 5730
5757 5754 5751 5750 5750 5747 5745 5745 5743 5742 5742 5741 5738 5736 5735 5737 5736 5736 5734 5735 5734 5732 5730 5734 5729 5729 5727 5729 5724 5722 5724 5719 5718 5716 5715 5718 5707 5717 5721 5721 5719 5720 5719 5717 5718
5753 5748 5747 5743 5742 5740 5739 5737 5736 5736 5735 5733 5730 5729 5729 5730 5730 5728 5727 5726 5725 5725 5725 5726 5724 5721 5721 5720 5717 5713 5713 5710 5709 5706 5704 5705 5704 5707 5708 5710 5712 5708 5706 5706 5706
5747 5745 5740 5738 5736 5733 5729 5728 5728 5729 5726 5725 5723 5723 5724 5723 5722 5719 5720 5720 5720 5719 5717 5722 5715 5714 5713 5712 5710 5706 5704 5703 5701 5698 5691 5698 5693 5691 5694 5695 5699 5696 5694 5693 5692
5739 5736 5733 5729 5730 5726 5723 5721 5721 5719 5718 5716 5716 5717 5717 5716 5716 5714 5713 5712 5710 5708 5709 5708 5711 5708 5705 5703 5704 5700 5697 5692 5688 5686 5683 5684 5679 5678 5679 5681 5681 5681 5681 5681 5679
5731 5726 5724 5722 5720 5718 5716 5714 5712 5710 5708 5707 5706 5708 5709 5709 5708 5708 5707 5705 5701 5698 5695 5694 5697 5700 5698 5696 5693 5692 5688 5685 5672 5671 5669 5672 5664 5670 5669 5666 5665 5666 5666 5664 5664
5723 5718 5715 5714 5712 5711 5708 5706 5703 5702 5700 5698 5700 5700 5700 5699 5699 5698 5698 5697 5692 5689 5688 5685 5681 5684 5690 5689 5687 5682 5677 5674 5667 5664 5657 5657 5655 5656 5655 5652 5653 5653 5650 5648 5647
5714 5710 5708 5706 5704 5703 5700 5697 5694 5692 5691 5693 5692 5692 5692 5692 5690 5688 5689 5690 5686 5680 5676 5675 5670 5674 5676 5676 5676 5673 5667 5665 5663 5651 5645 5645 5643 5640 5639 5641 5639 5635 5632 5629 5630
5708 5704 5702 5699 5696 5694 5691 5689 5685 5684 5683 5684 5683 5683 5683 5684 5683 5682 5680 5682 5676 5675 5671 5668 5664 5664 5665 5666 5664 5662 5657 5655 5650 5645 5638 5632 5630 5627 5633 5628 5620 5620 5617 5618 5620
5703 5700 5694 5691 5689 5686 5683 5681 5678 5677 5675 5674 5675 5675 5674 5674 5675 5674 5673 5669 5669 5664 5663 5661 5655 5654 5655 5655 5652 5650 5647 5644 5638 5634 5625 5621 5615 5625 5618 5610 5604 5602 5603 5609 5610
5698 5693 5690 5686 5682 5678 5676 5672 5669 5668 5667 5667 5666 5665 5665 5665 5664 5665 5664 5661 5657 5656 5653 5651 5647 5645 5645 5647 5642 5639 5636 5633 5627 5620 5613 5608 5610 5609 5602 5594 5590 5590 5597 5599 5599
5695 5689 5684 5680 5675 5672 5668 5664 5663 5660 5660 5658 5658 5656 5657 5657 5655 5654 5654 5653 5649 5646 5643 5640 5638 5638 5636 5635 5632 5629 5626 5622 5615 5607 5606 5603 5600 5600 5596 5589 5586 5585 5587 5589 5589
5689 5684 5679 5673 5669 5664 5661 5657 5654 5652 5650 5649 5649 5647 5648 5648 5646 5644 5642 5643 5642 5637 5634 5630 5627 5628 5629 5625 5620 5616 5613 5609 5604 5603 5596 5599 5592 5592 5588 5585 5582 5578 5579 5581 5581
5682 5679 5674 5668 5664 5659 5652 5650 5646 5643 5641 5640 5639 5639 5639 5637 5635 5638 5632 5632 5632 5628 5624 5622 5620 5619 5620 5614 5610 5607 5603 5599 5597 5595 5592 5589 5586 5584 5582 5580 5578 5575 5573 5573 5573
5673 5669 5666 5662 5657 5653 5649 5643 5639 5634 5633 5629 5629 5629 5629 5628 5627 5625 5624 5624 5621 5619 5616 5614 5612 5610 5610 5605 5603 5601 5598 5595 5592 5589 5586 5583 5581 5579 5576 5574 5571 5569 5566 5565 5564
Wind_Speed
11 9 7 8 11 14 17 21 23 24 24 24 25 25 25 26 25 25 23 27 29 30 29 29 30 31 30 30 32 33 37 34 30 33 31 37 44 48 52 59 50 56 59 56 58
15 12 10 7 4 3 6 10 15 19 22 23 23 23 24 24 26 26 26 26 26 30 31 32 31 31 31 31 33 34 33 30 30 33 31 38 45 45 50 53 53 44 48 51 56
11 10 10 9 9 8 6 5 5 7 10 12 14 16 18 20 23 24 26 26 27 28 30 31 32 32 33 34 33 34 32 34 34 35 34 33 41 39 47 49 47 47 46 55 58
7 5 5 4 4 4 5 6 6 7 8 8 9 9 10 12 13 15 16 17 18 20 22 24 27 30 32 33 36 35 36 37 34 36 37 35 39 41 42 41 46 49 50 52 53
8 5 2 2 1 1 2 3 4 6 7 7 8 9 10 12 14 15 15 17 18 18 19 21 23 24 26 28 29 32 32 37 37 38 39 39 38 39 39 42 44 45 47 49 51
10 9 7 4 3 3 4 7 8 9 9 10 11 12 12 12 16 16 16 18 19 20 20 22 23 24 25 25 30 34 35 35 37 34 36 37 34 36 34 41 45 45 45 46 48
6 6 6 6 6 4 4 5 5 7 9 11 13 16 16 16 19 22 21 21 23 23 24 24 24 25 24 27 30 32 36 37 36 36 36 38 42 39 33 37 42 43 45 44 44
6 5 4 5 5 5 4 4 4 5 6 7 8 9 8 14 19 21 21 22 25 26 27 26 27 27 27 27 27 29 31 30 30 35 37 43 43 41 44 44 46 49 53 53 53
12 10 9 8 8 8 8 7 8 8 10 10 12 13 11 13 14 14 19 16 17 20 23 25 27 29 30 28 27 28 30 31 30 34 38 42 42 43 44 46 47 48 48 50 51
15 16 16 14 14 13 13 13 12 12 12 12 14 14 15 16 16 17 19 19 19 19 20 21 21 23 26 28 30 33 35 33 32 31 36 37 36 39 42 43 45 47 47 48 51
16 18 19 18 17 17 17 17 17 17 17 16 17 17 17 19 20 18 20 21 23 24 24 24 23 24 26 26 27 29 33 34 34 35 42 41 41 37 39 40 41 42 44 47 48
20 20 20 21 20 19 18 19 20 19 23 19 20 24 19 19 22 22 21 22 23 26 26 24 24 27 29 30 31 32 33 31 33 33 37 38 41 40 41 43 43 43 43 43 44
20 23 24 24 22 23 23 22 19 19 21 26 23 25 24 24 26 25 24 24 25 26 27 26 25 28 28 30 34 33 34 36 37 35 40 42 42 39 41 42 40 41 42 42 42
19 20 23 27 28 25 25 24 23 22 21 23 25 27 27 25 25 25 27 26 27 29 30 23 29 30 32 30 35 37 34 39 42 43 43 41 48 40 37 38 39 38 44 46 46
24 25 22 26 25 29 30 26 25 24 24 24 26 26 25 24 24 27 28 30 31 30 32 28 30 34 34 34 36 40 39 42 44 46 48 47 49 44 39 34 31 37 43 44 46
30 28 30 29 26 25 30 31 26 26 27 26 26 26 25 26 28 31 30 30 29 32 35 29 35 37 37 37 38 42 44 43 44 47 52 46 48 50 46 42 33 35 39 38 37
35 32 31 31 28 27 27 31 29 27 30 31 30 27 25 25 24 26 29 32 32 33 32 33 29 34 36 36 33 36 40 44 48 48 50 48 53 52 48 44 44 43 41 43 46
29 31 30 30 29 28 29 28 31 32 32 33 34 30 28 25 26 28 30 31 33 34 37 37 32 29 31 32 34 33 37 40 51 51 51 46 53 47 48 51 49 46 48 47 47
29 30 33 31 31 29 30 31 30 33 35 35 33 30 30 29 30 29 29 31 36 38 39 41 43 39 29 30 33 39 44 45 49 51 54 52 52 50 53 55 53 51 51 51 51
26 29 31 33 30 31 33 33 32 32 35 34 33 31 30 31 34 34 32 32 36 42 42 43 46 43 39 36 37 40 46 46 48 56 57 53 54 57 60 57 55 56 58 54 43
25 27 28 29 32 31 30 33 35 32 33 35 35 33 32 31 31 33 36 33 38 38 40 43 47 46 42 37 37 40 44 43 42 44 49 57 61 62 58 60 61 53 44 33 36
24 27 27 29 29 31 32 31 31 26 32 35 37 37 35 34 30 29 31 35 34 37 38 39 45 45 42 38 38 39 37 38 44 48 53 56 64 50 44 50 50 50 47 40 33
28 28 28 31 29 28 30 31 33 29 24 31 35 37 37 36 34 30 30 31 36 36 38 39 41 41 39 36 37 38 39 42 46 51 55 53 44 26 29 35 35 35 33 34 34
30 30 30 32 33 30 29 31 32 33 26 28 31 34 32 33 33 33 32 30 33 37 38 40 40 37 37 35 36 38 40 40 44 48 42 37 30 18 24 27 25 29 29 26 26
33 32 31 33 35 34 31 33 35 33 31 26 27 31 31 32 31 32 33 30 30 33 35 37 39 36 32 34 39 42 40 34 31 30 34 26 31 25 24 24 27 24 27 27 28
35 33 32 34 34 35 37 33 35 35 34 30 30 27 28 31 32 26 34 32 29 31 34 36 36 33 30 35 38 35 31 32 27 27 29 26 24 25 29 30 27 24 25 28 30
36 35 35 34 36 38 37 38 35 36 34 35 33 31 27 29 29 29 31 29 31 30 31 34 32 31 32 32 30 28 24 22 24 25 26 27 28 29 30 30 31 32 28 31 29
Wind_Direction
92 114 144 178 198 204 204 204 208 213 217 221 224 227 231 233 233 234 236 235 233 238 239 236 238 240 238 239 237 242 244 246 247 245 238 229 229 234 236 244 243 237 233 239 239
75 84 91 98 118 173 215 224 220 220 222 226 229 231 233 235 235 238 238 237 235 235 238 238 236 238 241 238 240 243 245 244 241 235 230 225 230 231 234 239 246 243 246 250 252
64 73 87 99 105 111 121 144 181 207 221 229 233 236 236 236 236 237 237 237 237 239 241 241 243 243 243 244 246 243 243 240 243 244 237 228 234 228 236 240 245 250 237 235 237
56 57 57 76 103 124 137 148 157 166 174 179 186 193 202 214 222 226 230 233 234 236 242 247 250 252 252 250 249 250 250 249 244 246 245 236 237 238 241 240 243 245 249 250 254
31 29 38 336 271 225 195 190 193 197 201 204 212 217 224 232 234 234 234 236 239 244 246 248 249 252 256 257 257 257 258 258 259 257 251 245 241 243 250 252 248 247 249 252 257
17 19 17 7 25 334 273 247 239 239 238 235 235 236 236 243 250 245 246 247 244 245 247 249 252 253 255 258 255 253 252 253 255 255 256 254 245 245 248 251 251 254 255 257 260
13 7 354 351 350 356 358 337 308 270 256 249 248 249 248 242 250 257 254 254 254 253 253 253 255 255 254 253 255 254 254 254 254 255 252 251 250 250 236 239 246 251 254 258 257
308 313 322 321 315 301 290 284 280 285 287 281 267 262 259 252 254 260 265 255 255 257 257 254 253 252 249 251 253 253 254 254 259 255 253 252 247 245 242 231 236 236 240 244 247
293 286 284 285 287 289 288 281 269 261 258 264 266 259 266 265 265 265 274 268 264 259 259 260 259 259 258 256 255 254 253 252 250 257 256 256 253 252 251 253 248 248 248 247 248
304 293 282 277 280 280 279 273 271 272 264 263 265 268 268 268 262 263 266 270 269 268 266 268 271 268 264 262 259 257 256 254 255 259 264 263 260 259 259 258 256 255 252 250 252
303 301 295 288 276 275 273 273 272 272 269 267 267 263 266 266 267 260 257 261 263 264 269 273 274 269 268 269 268 266 266 265 264 258 261 261 259 257 263 262 259 258 258 257 255
305 302 298 295 292 284 275 270 265 265 270 262 261 266 264 264 265 267 265 266 262 261 263 266 271 267 268 271 269 269 270 274 270 268 264 262 263 261 255 257 260 262 263 262 260
312 305 300 296 292 289 284 279 275 267 261 270 268 263 262 258 259 265 255 261 260 262 262 265 267 267 267 272 276 276 277 275 274 265 263 265 262 259 260 262 262 264 266 266 262
325 317 308 297 292 288 284 285 278 273 266 264 260 262 263 263 260 257 254 259 260 261 264 266 265 270 270 267 270 268 270 269 268 267 263 257 269 264 265 263 264 261 260 263 264
314 312 313 308 310 287 279 281 281 275 270 260 263 264 263 261 263 261 260 261 263 263 267 265 262 265 268 270 267 274 268 270 275 277 278 275 279 276 269 262 263 259 262 264 268
306 305 305 304 304 304 291 271 268 272 266 262 255 257 264 267 270 268 260 263 266 269 269 265 266 269 270 269 270 271 274 277 278 278 276 282 281 275 276 275 277 266 256 259 257
300 298 297 293 294 294 296 288 268 268 271 268 263 262 260 261 259 268 271 275 274 273 271 268 263 264 268 269 271 279 285 286 281 277 280 281 277 278 282 284 279 273 273 268 263
306 299 293 293 287 285 289 290 278 269 266 266 270 270 270 268 263 264 268 275 280 286 288 288 283 280 281 280 284 283 282 285 286 285 281 276 275 282 280 282 286 283 279 278 267
308 298 293 290 289 285 284 287 283 272 261 264 269 271 273 276 276 277 279 284 284 284 284 289 290 292 286 286 289 287 282 283 286 283 281 283 284 282 281 281 283 282 279 273 267
320 311 304 294 291 286 284 283 283 278 266 263 262 264 267 269 275 277 275 278 281 285 287 288 288 289 291 291 286 281 282 285 285 283 284 284 283 283 283 291 288 283 283 277 278
337 329 316 305 293 290 290 288 284 281 268 261 261 263 264 264 263 266 274 272 273 277 281 282 285 288 292 288 283 280 281 282 279 278 279 281 281 283 292 290 287 286 272 266 271
341 340 332 319 307 298 289 289 287 289 279 271 274 268 269 267 269 271 273 276 275 276 273 273 278 281 282 283 281 281 281 282 283 284 279 278 283 297 293 283 277 270 266 272 274
332 334 339 331 321 311 299 292 288 287 272 270 274 271 271 270 277 276 276 278 279 277 277 276 275 278 279 283 283 283 285 285 283 282 282 286 301 298 293 280 268 278 280 275 267
325 329 331 332 324 318 312 299 291 285 280 278 277 274 272 275 279 279 277 274 274 279 279 280 278 278 285 288 288 284 282 284 281 281 287 289 293 283 308 314 286 259 266 271 275
317 322 327 329 327 321 316 308 299 291 284 277 277 275 276 276 275 279 281 279 280 280 279 278 278 281 287 288 286 287 293 290 283 285 285 294 287 287 293 309 309 283 263 258 261
312 314 318 321 323 322 316 311 305 298 288 276 269 266 271 273 275 273 277 284 285 280 278 275 278 283 291 287 288 295 289 290 290 287 291 289 292 296 295 305 298 290 282 267 262
310 312 313 313 314 314 318 311 305 300 296 286 280 279 281 280 279 282 281 284 283 279 275 276 282 290 290 286 288 287 286 283 290 292 292 289 294 296 293 294 292 300 286 279 281